[[[{"header":{"parameterUnit":"kt","parameterCategory":2,"dx":1,"dy":1,"la1":30.253999710083008,"la2":30.299108505249023,"lo1":-89.0895004272461,"lo2":-89.04439544677734,"nx":28,"ny":28,"refTime":"2022-09-25T21:00:00:Z","depth":0,"parameterNumber":1,"parameterNumberName":"U-component_of_WINDS"},"data":[0.027,0.017,0.0098,-0.0048,-0.0138,-0.0251,-0.0314,-0.0404,-0.0494,-0.0636,-0.073,-0.0814,-0.0932,-0.1063,-0.1169,-0.1204,-0.1243,-0.1224,-0.1268,-0.1289,-0.1297,-0.1304,-0.1286,-0.1232,-0.1232,-0.1237,-0.1237,-0.1237,0.0269,0.018,0.008,-0.0066,-0.0152,-0.0213,-0.0334,-0.0402,-0.0501,-0.0613,-0.0712,-0.0843,-0.0957,-0.1086,-0.1208,-0.1255,-0.1292,-0.1283,-0.1281,-0.1298,-0.1323,-0.1302,-0.1251,-0.1251,-0.1251,-0.1251,-0.1251,-0.1251,0.0247,0.019,0.0058,-0.0052,-0.0146,-0.0243,-0.0311,-0.0414,-0.0513,-0.065,-0.0719,-0.0834,-0.0961,-0.1146,-0.1227,-0.1317,-0.1341,-0.1355,-0.1359,-0.136,-0.1351,-0.1329,-0.1342,-0.1343,-0.1343,-0.1343,-0.1344,0,0.0208,0.0151,0.0048,-0.0075,-0.016,-0.0263,-0.0371,-0.0415,-0.0564,-0.064,-0.0756,-0.0836,-0.0992,-0.111,-0.1242,-0.1326,-0.1399,-0.1416,-0.1425,-0.1393,-0.1344,-0.137,-0.1405,-0.1415,-0.1416,-0.1417,-0.1417,-0.1418,0.0181,0.0121,-0.0055,-0.0116,-0.0195,-0.0293,-0.0367,-0.0495,-0.0568,-0.072,-0.0765,-0.0885,-0.0988,-0.1162,-0.1284,-0.1402,-0.144,-0.1435,-0.1458,-0.1422,-0.1439,-0.1433,-0.1439,-0.1428,-0.1426,-0.1425,-0.1424,0,0.0174,0.0051,-0.0067,-0.0237,-0.0282,-0.0338,-0.0484,-0.0548,-0.0643,-0.0744,-0.0775,-0.0924,-0.1037,-0.1162,-0.1316,-0.1378,-0.1468,-0.1502,-0.1424,-0.1438,-0.1445,-0.1442,-0.1451,-0.1459,-0.1517,-0.1516,-0.1515,0,0.0103,0.0028,-0.0152,-0.0214,-0.0301,-0.043,-0.0512,-0.0603,-0.0718,-0.0799,-0.0904,-0.0978,-0.1127,-0.1218,-0.1309,-0.1406,-0.1436,-0.1489,-0.1512,-0.148,-0.1473,-0.1521,-0.1523,-0.1565,-0.1565,-0.1565,-0.1565,0,0.0104,-0.0083,-0.0185,-0.0247,-0.0439,-0.0483,-0.0565,-0.0696,-0.0768,-0.0882,-0.0931,-0.1054,-0.1122,-0.1214,-0.1331,-0.1342,-0.1453,-0.1493,-0.1507,-0.1504,-0.1527,-0.1524,-0.15,-0.1564,-0.1564,-0.1564,-0.1564,0,0.0025,-0.0089,-0.0219,-0.0381,-0.0425,-0.0492,-0.0623,-0.0711,-0.0842,-0.0905,-0.0996,-0.1082,-0.1179,-0.1208,-0.1344,-0.1325,-0.1384,-0.1445,-0.1448,-0.1466,-0.1495,-0.1464,-0.1429,-0.143,-0.1478,-0.1478,-0.1477,0,0.0062,-0.0105,-0.0219,-0.034,-0.0435,-0.0548,-0.0626,-0.074,-0.0831,-0.0923,-0.1024,-0.1129,-0.1178,-0.1229,-0.128,-0.1388,-0.1412,-0.1388,-0.1518,-0.1521,-0.1479,-0.1448,-0.1412,-0.1422,-0.147,-0.1471,-0.1471,0,0.0073,-0.0163,-0.0177,-0.0254,-0.0429,-0.051,-0.0598,-0.0733,-0.0788,-0.0907,-0.0985,-0.1137,-0.118,-0.1264,-0.1348,-0.1394,-0.1399,-0.1435,-0.144,-0.1423,-0.1478,-0.1442,-0.1443,-0.1446,-0.1447,-0.1448,-0.1465,0,-0.0014,-0.0116,-0.016,-0.033,-0.0413,-0.0498,-0.0635,-0.0703,-0.0777,-0.0872,-0.099,-0.112,-0.1258,-0.1295,-0.1368,-0.1433,-0.1442,-0.1488,-0.1528,-0.1506,-0.1515,-0.1519,-0.1502,-0.1504,-0.1505,-0.1507,0,0,0.0052,-0.0098,-0.0224,-0.0318,-0.0396,-0.0515,-0.0593,-0.0683,-0.0863,-0.0913,-0.0936,-0.117,-0.1275,-0.1404,-0.1409,-0.1465,-0.1489,-0.1493,-0.1515,-0.1516,-0.1516,-0.1524,-0.1526,-0.151,-0.151,-0.1511,-0.1512,0,-0.001,-0.0116,-0.0194,-0.0293,-0.0444,-0.0543,-0.0561,-0.0733,-0.0799,-0.0917,-0.1015,-0.1102,-0.1288,-0.1386,-0.146,-0.148,-0.1549,-0.1511,-0.1475,-0.1527,-0.1525,-0.1524,-0.153,-0.1531,-0.1516,-0.1515,-0.1515,0,-0.0023,-0.015,-0.0203,-0.0389,-0.049,-0.0586,-0.0661,-0.076,-0.0833,-0.0961,-0.1077,-0.1168,-0.1313,-0.1418,-0.147,-0.1493,-0.1595,-0.1589,-0.1582,-0.1592,-0.1649,-0.1646,-0.1644,-0.1673,-0.1673,-0.1673,0,0,-0.0057,-0.0155,-0.0334,-0.0413,-0.047,-0.0619,-0.0686,-0.0767,-0.0895,-0.0946,-0.1066,-0.1186,-0.1296,-0.1365,-0.1475,-0.1572,-0.1612,-0.1603,-0.1595,-0.1589,-0.1594,-0.1649,-0.1647,-0.1673,-0.1673,-0.1673,0,0,-0.0075,-0.0286,-0.0339,-0.0449,-0.0566,-0.0749,-0.0792,-0.0861,-0.0975,-0.0981,-0.1124,-0.1163,-0.1264,-0.1351,-0.1333,-0.1492,-0.1528,-0.1535,-0.1432,-0.1425,-0.1418,-0.1395,-0.1429,0,0,0,0,0,-0.021,-0.026,-0.0305,-0.0345,-0.0582,-0.0723,-0.0754,-0.0874,-0.0896,-0.0927,-0.1038,-0.1109,-0.137,-0.1358,-0.1395,-0.1414,-0.1671,-0.1671,-0.1672,-0.1562,-0.1553,-0.1545,0,0,0,0,0,0,-0.0227,-0.0275,-0.0304,-0.0487,-0.0541,-0.0722,-0.0787,-0.0821,-0.0896,-0.0908,-0.1085,-0.1115,-0.122,-0.1348,-0.1379,-0.1394,-0.1419,-0.1671,-0.1672,-0.1672,-0.1559,-0.1551,-0.1545,0,0,0,0,0,-0.0241,-0.0279,-0.0629,-0.0487,-0.0535,-0.0705,-0.0786,-0.0815,-0.0875,-0.1049,-0.1081,-0.0959,-0.1217,-0.1252,-0.1367,-0.1377,-0.1399,-0.141,-0.1671,-0.1672,-0.1672,-0.1555,0,0,0,0,0,0,-0.0251,-0.0307,-0.0641,-0.066,-0.0479,-0.0698,-0.0736,-0.0809,-0.1015,-0.1046,-0.093,-0.0936,-0.1216,-0.1243,-0.1269,-0.1364,-0.1382,-0.1393,-0.14,-0.1672,-0.1672,-0.1672,0,0,0,0,0,0,-0.0287,-0.0322,-0.0651,-0.0634,-0.0652,-0.069,-0.0724,-0.084,-0.1015,-0.0884,-0.0896,-0.093,-0.1176,-0.1237,-0.1257,-0.1434,-0.1369,-0.138,-0.1387,-0.1392,-0.1672,-0.1672,0,0,0,0,0,0,-0.0304,-0.0334,-0.063,-0.0643,-0.0659,-0.088,-0.0795,-0.1031,-0.1,-0.0873,-0.1001,-0.1001,-0.1168,-0.1192,-0.1249,-0.1416,-0.1429,-0.1369,-0.1376,-0.1382,-0.1385,0,0,0,0,0,0,0,-0.0318,-0.0088,-0.0529,-0.0651,-0.0665,-0.0835,-0.084,-0.0845,-0.1,-0.1,-0.1,-0.1001,-0.1307,-0.1318,-0.1331,-0.1401,0,0,-0.1368,-0.1373,0,0,0,0,0,0,0,0,-0.0078,-0.0085,-0.053,-0.0534,-0.0538,-0.0836,-0.084,-0.0844,-0.1,-0.1,-0.1,-0.1001,-0.131,-0.1319,-0.1329,0,0,0,0,0,0,0,0,0,0,0,0,0,0,0,-0.053,-0.0534,0,-0.0836,-0.084,-0.0843,-0.1,-0.1,-0.1,-0.1001,-0.1312,-0.132,-0.1328,0,0,0,0,0,0,0,0,0,0,0,0,0,0,0,0,0,0,0,0,0,0,0,0,0,0,0,0,0,0,0,0,0,0,0,0,0,0,0,0,0,0,0,0,0,0,0,0,0,0,0,0,0,0,0,0,0,0,0,0,0,0,0,0,0,0,0,0,0]}],[{"header":{"parameterUnit":"kt","parameterCategory":2,"dx":1,"dy":1,"la1":30.253999710083008,"la2":30.299108505249023,"lo1":-89.0895004272461,"lo2":-89.04439544677734,"nx":28,"ny":28,"refTime":"2022-09-25T21:00:00:Z","depth":0,"parameterNumber":2,"parameterNumberName":"V-component_of_WINDS"},"data":[0.9075,0.9009,0.8966,0.887,0.8814,0.8741,0.87,0.8643,0.8586,0.8493,0.8431,0.8379,0.8303,0.8218,0.8147,0.8125,0.8098,0.8108,0.808,0.8079,0.8076,0.8073,0.8086,0.8103,0.8103,0.8087,0.8087,0.8087,0.9082,0.9027,0.8963,0.8872,0.8817,0.8782,0.8706,0.8662,0.8596,0.8525,0.8461,0.8374,0.8299,0.8218,0.8138,0.8105,0.8082,0.8086,0.8087,0.8076,0.8073,0.8088,0.8106,0.8106,0.8106,0.8106,0.8106,0.8106,0.9082,0.9044,0.8963,0.8893,0.8834,0.8773,0.8728,0.8665,0.8601,0.8513,0.8471,0.8395,0.8314,0.8194,0.8142,0.8081,0.8068,0.8057,0.8054,0.8053,0.8058,0.8088,0.8065,0.8065,0.8065,0.8064,0.8064,0,0.9068,0.9035,0.8969,0.8892,0.8838,0.8773,0.8705,0.8676,0.8586,0.8536,0.846,0.8409,0.8306,0.8229,0.8143,0.8089,0.8045,0.8036,0.8028,0.8047,0.8077,0.806,0.8059,0.8036,0.8036,0.8035,0.8035,0.8035,0.9065,0.9025,0.8918,0.8878,0.883,0.8767,0.8719,0.8643,0.8596,0.85,0.8469,0.839,0.8323,0.8207,0.8131,0.8053,0.8031,0.8028,0.8018,0.804,0.803,0.8033,0.8029,0.803,0.8031,0.8031,0.8032,0,0.9068,0.8995,0.8918,0.8814,0.8787,0.8748,0.8659,0.8616,0.8558,0.8491,0.847,0.8378,0.8304,0.8227,0.8126,0.8088,0.8022,0.8003,0.8051,0.8042,0.8032,0.8034,0.8009,0.8001,0.7984,0.7984,0.7984,0,0.9036,0.8985,0.8879,0.8838,0.878,0.8703,0.8647,0.8591,0.8519,0.8465,0.8403,0.8354,0.8263,0.8202,0.8146,0.8078,0.8059,0.8026,0.8011,0.8031,0.8035,0.8003,0.8002,0.798,0.798,0.798,0.798,0,0.9047,0.893,0.8863,0.8824,0.8707,0.8677,0.8627,0.8545,0.8498,0.8425,0.8394,0.8314,0.827,0.821,0.8138,0.8135,0.8054,0.8034,0.8019,0.8021,0.8004,0.8006,0.8005,0.798,0.798,0.798,0.7981,0,0.9009,0.8938,0.8852,0.8753,0.8725,0.868,0.8597,0.8541,0.8458,0.842,0.8361,0.831,0.8244,0.8231,0.8139,0.8156,0.8116,0.8078,0.8075,0.8064,0.8051,0.806,0.8067,0.8064,0.8055,0.8056,0.8056,0,0.9042,0.8935,0.8867,0.8786,0.8726,0.866,0.8609,0.8538,0.8482,0.8422,0.8359,0.829,0.8264,0.8231,0.8196,0.8128,0.8107,0.8129,0.8042,0.8039,0.8066,0.8072,0.8092,0.8074,0.8063,0.8063,0.8062,0,0.9058,0.8915,0.8905,0.8857,0.875,0.8699,0.864,0.8555,0.8519,0.8444,0.8392,0.8293,0.8269,0.8215,0.8164,0.8131,0.8119,0.8109,0.8106,0.8114,0.806,0.808,0.8077,0.8092,0.8091,0.809,0.8067,0,0.9017,0.8953,0.8923,0.8819,0.8767,0.8711,0.8628,0.8584,0.8541,0.8482,0.8404,0.8322,0.8234,0.8209,0.8165,0.8116,0.8112,0.8086,0.8066,0.8071,0.8061,0.8057,0.8087,0.8086,0.8085,0.8085,0,0,0.9067,0.8972,0.8899,0.8839,0.879,0.8721,0.8669,0.8613,0.8501,0.8468,0.8457,0.8305,0.8239,0.8152,0.8147,0.8111,0.8094,0.8095,0.8069,0.8068,0.8066,0.8058,0.8055,0.8083,0.8083,0.8082,0.8082,0,0.9034,0.8971,0.892,0.8859,0.8766,0.8706,0.8695,0.8589,0.8549,0.8471,0.8414,0.8356,0.8236,0.8173,0.8126,0.8104,0.8063,0.8083,0.81,0.8063,0.8063,0.8062,0.8054,0.8052,0.808,0.808,0.808,0,0.9034,0.8958,0.8925,0.881,0.8748,0.8686,0.8646,0.8582,0.8535,0.8459,0.8383,0.8326,0.8235,0.8163,0.8128,0.8116,0.8039,0.8047,0.8051,0.8045,0.8004,0.8005,0.8005,0.8005,0.8005,0.8005,0,0,0.9018,0.8957,0.8849,0.8797,0.8762,0.8672,0.863,0.8581,0.8502,0.847,0.8395,0.8319,0.8248,0.8203,0.8131,0.8065,0.8039,0.8042,0.8045,0.8048,0.8044,0.8005,0.8005,0.8005,0.8005,0.8005,0,0,0.9008,0.8882,0.8852,0.8781,0.8708,0.8597,0.8567,0.8527,0.8455,0.8451,0.8364,0.834,0.8271,0.8217,0.8232,0.8122,0.8104,0.8099,0.816,0.8164,0.8167,0.8181,0.8177,0,0,0,0,0,0.8932,0.8898,0.8872,0.8848,0.8701,0.8612,0.8592,0.852,0.851,0.8488,0.842,0.8378,0.8207,0.8218,0.8195,0.8178,0.801,0.8009,0.8008,0.8071,0.8075,0.8079,0,0,0,0,0,0,0.8922,0.8892,0.8873,0.8761,0.8728,0.8612,0.8578,0.8558,0.851,0.8504,0.8392,0.8374,0.831,0.8225,0.8205,0.8191,0.8183,0.8009,0.8009,0.8008,0.8073,0.8076,0.8079,0,0,0,0,0,0.8913,0.8889,0.8673,0.8761,0.8732,0.8628,0.8579,0.8561,0.8523,0.8416,0.8396,0.8473,0.8312,0.829,0.8213,0.8202,0.8197,0.8189,0.8009,0.8008,0.8008,0.8074,0,0,0,0,0,0,0.8907,0.8872,0.8666,0.8654,0.8769,0.8633,0.861,0.8565,0.8437,0.8417,0.8493,0.8489,0.8312,0.8295,0.8278,0.821,0.8208,0.82,0.8196,0.8009,0.8008,0.8008,0,0,0,0,0,0,0.8884,0.8863,0.866,0.8673,0.8662,0.8638,0.8617,0.8541,0.8436,0.852,0.8513,0.8493,0.8337,0.8299,0.8286,0.8169,0.8216,0.8209,0.8204,0.8201,0.8008,0.8008,0,0,0,0,0,0,0.8874,0.8855,0.8676,0.8667,0.8658,0.8521,0.8569,0.8423,0.845,0.8527,0.845,0.845,0.8342,0.8327,0.8291,0.8181,0.8172,0.8216,0.8211,0.8208,0.8205,0,0,0,0,0,0,0,0.8866,0.9008,0.8735,0.8663,0.8654,0.8546,0.8543,0.854,0.845,0.845,0.845,0.845,0.8256,0.8249,0.8241,0.819,0,0,0.8217,0.8213,0,0,0,0,0,0,0,0,0.9014,0.9009,0.8735,0.8732,0.873,0.8546,0.8543,0.8541,0.845,0.845,0.845,0.845,0.8254,0.8248,0.8242,0,0,0,0,0,0,0,0,0,0,0,0,0,0,0,0.8735,0.8733,0,0.8546,0.8543,0.8541,0.845,0.845,0.845,0.845,0.8253,0.8247,0.8242,0,0,0,0,0,0,0,0,0,0,0,0,0,0,0,0,0,0,0,0,0,0,0,0,0,0,0,0,0,0,0,0,0,0,0,0,0,0,0,0,0,0,0,0,0,0,0,0,0,0,0,0,0,0,0,0,0,0,0,0,0,0,0,0,0,0,0,0,0]}]]]